When you browse on this site, cookies collect data to enhance your experience and personalize the content and advertising you see.
Visit our Privacy Policy to learn more. By continuing to use the site, you agree to this use of cookies and data.
  • In Slovakia
  • List of Countries
  • For 7 days
  • Water Temperature
  • Satellite Maps
  • Weather Map
  • Weather Widgets
  • user-avatar
    Login

    Hourly Weather Sidi Bu-l-Abbas

    Today, 21 March, Thursday

    Time Temperature Precipitation Wind Pressure Humidity
    00:00 +5°C° 0 mm 1 mps 725 mmHg 90%
    01:00 +4°C° 0 mm 0 mps 724 mmHg 91%
    02:00 +4°C° 0 mm 0 mps 724 mmHg 91%
    03:00 +3°C° 0 mm 0 mps 724 mmHg 92%
    04:00 +3°C° 0 mm 0 mps 724 mmHg 92%
    05:00 +3°C° 0 mm 0 mps 724 mmHg 92%
    06:00 +3°C° 0 mm 0 mps 724 mmHg 92%
    07:00 +6°C° 0 mm 1 mps 724 mmHg 86%
    08:00 +8°C° 0 mm 1 mps 725 mmHg 79%
    09:00 +9°C° 0 mm 1 mps 725 mmHg 73%
    10:00 +9°C° 0.1 mm 2 mps 725 mmHg 71%
    11:00 +10°C° 0.1 mm 2 mps 725 mmHg 69%
    12:00 +10°C° 0.1 mm 3 mps 725 mmHg 66%
    13:00 +11°C° 0.2 mm 4 mps 724 mmHg 68%
    14:00 +11°C° 0.2 mm 4 mps 724 mmHg 69%
    15:00 +10°C° 0.2 mm 5 mps 724 mmHg 71%
    16:00 +9°C° 0.2 mm 5 mps 724 mmHg 74%
    17:00 +10°C° 0.2 mm 4 mps 724 mmHg 77%
    18:00 +10°C° 0.2 mm 4 mps 724 mmHg 80%
    19:00 +9°C° 0 mm 3 mps 724 mmHg 84%
    20:00 +8°C° 0 mm 2 mps 724 mmHg 87%
    21:00 +8°C° 0 mm 1 mps 725 mmHg 91%
    22:00 +9°C° 0 mm 1 mps 725 mmHg 90%
    23:00 +9°C° 0 mm 1 mps 725 mmHg 90%

    Tomorrow, 22 March, Friday

    Time Temperature Precipitation Wind Pressure Humidity
    00:00 +9°C° 0 mm 1 mps 725 mmHg 89%
    01:00 +9°C° 0 mm 1 mps 724 mmHg 90%
    02:00 +8°C° 0 mm 0 mps 724 mmHg 91%
    03:00 +8°C° 0 mm 0 mps 724 mmHg 91%
    04:00 +8°C° 0 mm 0 mps 724 mmHg 91%
    05:00 +8°C° 0 mm 0 mps 724 mmHg 92%
    06:00 +9°C° 0 mm 1 mps 724 mmHg 92%
    07:00 +10°C° 0 mm 1 mps 725 mmHg 90%
    08:00 +10°C° 0 mm 1 mps 725 mmHg 87%
    09:00 +11°C° 0 mm 1 mps 725 mmHg 85%
    10:00 +12°C° 0.1 mm 1 mps 725 mmHg 80%
    11:00 +13°C° 0.1 mm 2 mps 725 mmHg 75%
    12:00 +14°C° 0.1 mm 2 mps 726 mmHg 70%
    13:00 +13°C° 0.4 mm 3 mps 725 mmHg 70%
    14:00 +14°C° 0.4 mm 4 mps 725 mmHg 70%
    15:00 +14°C° 0.4 mm 5 mps 724 mmHg 69%
    16:00 +13°C° 0.1 mm 5 mps 724 mmHg 73%
    17:00 +12°C° 0.1 mm 4 mps 724 mmHg 77%
    18:00 +12°C° 0.1 mm 4 mps 724 mmHg 81%
    19:00 +11°C° 0 mm 3 mps 724 mmHg 85%
    20:00 +10°C° 0 mm 2 mps 725 mmHg 89%
    21:00 +10°C° 0 mm 1 mps 725 mmHg 94%
    22:00 +10°C° 0 mm 1 mps 725 mmHg 94%
    23:00 +9°C° 0 mm 1 mps 725 mmHg 94%

    Day after tomorrow, 23 March, Saturday

    Time Temperature Precipitation Wind Pressure Humidity
    00:00 +8°C° 0 mm 0 mps 725 mmHg 94%
    01:00 +7°C° 0 mm 0 mps 724 mmHg 94%
    02:00 +7°C° 0 mm 0 mps 724 mmHg 94%
    03:00 +6°C° 0 mm 0 mps 724 mmHg 94%
    04:00 +6°C° 0 mm 0 mps 724 mmHg 94%
    05:00 +7°C° 0 mm 1 mps 724 mmHg 94%
    06:00 +7°C° 0 mm 1 mps 723 mmHg 94%
    07:00 +8°C° 0 mm 2 mps 724 mmHg 86%
    08:00 +10°C° 0 mm 2 mps 724 mmHg 78%
    09:00 +12°C° 0 mm 3 mps 725 mmHg 70%
    10:00 +14°C° 0 mm 3 mps 725 mmHg 62%
    11:00 +16°C° 0 mm 3 mps 724 mmHg 53%
    12:00 +18°C° 0 mm 3 mps 724 mmHg 45%
    13:00 +18°C° 0 mm 4 mps 724 mmHg 42%
    14:00 +19°C° 0 mm 4 mps 723 mmHg 39%
    15:00 +20°C° 0 mm 4 mps 722 mmHg 36%
    16:00 +19°C° 0 mm 5 mps 722 mmHg 40%
    17:00 +17°C° 0 mm 5 mps 722 mmHg 45%
    18:00 +16°C° 0 mm 5 mps 721 mmHg 49%
    19:00 +14°C° 0 mm 4 mps 721 mmHg 58%
    20:00 +13°C° 0 mm 3 mps 721 mmHg 66%
    21:00 +11°C° 0 mm 3 mps 722 mmHg 74%
    22:00 +11°C° 0 mm 3 mps 721 mmHg 72%
    23:00 +12°C° 0 mm 2 mps 721 mmHg 70%

    24 March, Sunday

    Time Temperature Precipitation Wind Pressure Humidity
    00:00 +12°C° 0 mm 2 mps 721 mmHg 67%
    01:00 +12°C° 0 mm 3 mps 721 mmHg 59%
    02:00 +12°C° 0 mm 3 mps 721 mmHg 52%
    03:00 +13°C° 0 mm 3 mps 720 mmHg 44%
    04:00 +13°C° 0 mm 3 mps 720 mmHg 44%
    05:00 +13°C° 0 mm 3 mps 720 mmHg 44%
    06:00 +13°C° 0 mm 3 mps 720 mmHg 44%
    07:00 +15°C° 0 mm 4 mps 721 mmHg 42%
    08:00 +17°C° 0 mm 5 mps 721 mmHg 40%
    09:00 +19°C° 0 mm 6 mps 722 mmHg 38%
    10:00 +20°C° 0 mm 6 mps 722 mmHg 35%
    11:00 +21°C° 0 mm 6 mps 722 mmHg 33%
    12:00 +22°C° 0 mm 7 mps 722 mmHg 30%
    13:00 +21°C° 0.1 mm 6 mps 721 mmHg 35%
    14:00 +20°C° 0.1 mm 5 mps 721 mmHg 39%
    15:00 +19°C° 0.1 mm 4 mps 720 mmHg 43%
    16:00 +17°C° 0.5 mm 3 mps 720 mmHg 52%
    17:00 +16°C° 0.5 mm 2 mps 720 mmHg 61%
    18:00 +15°C° 0.5 mm 1 mps 720 mmHg 70%
    19:00 +15°C° 0.2 mm 2 mps 720 mmHg 72%
    20:00 +14°C° 0.2 mm 2 mps 721 mmHg 74%
    21:00 +14°C° 0.2 mm 2 mps 721 mmHg 75%
    22:00 +13°C° 0 mm 3 mps 721 mmHg 73%
    23:00 +13°C° 0 mm 3 mps 720 mmHg 71%

    25 March, Monday

    Time Temperature Precipitation Wind Pressure Humidity
    00:00 +13°C° 0 mm 3 mps 720 mmHg 69%
    01:00 +13°C° 0.1 mm 3 mps 720 mmHg 68%
    02:00 +13°C° 0.1 mm 3 mps 720 mmHg 67%
    03:00 +13°C° 0.1 mm 3 mps 720 mmHg 67%
    04:00 +12°C° 0.2 mm 3 mps 720 mmHg 67%
    05:00 +12°C° 0.2 mm 3 mps 720 mmHg 68%
    06:00 +12°C° 0.2 mm 4 mps 720 mmHg 68%
    07:00 +13°C° 0.1 mm 4 mps 720 mmHg 65%
    08:00 +14°C° 0.1 mm 5 mps 721 mmHg 63%
    09:00 +14°C° 0.1 mm 6 mps 721 mmHg 60%
    10:00 +15°C° 0.1 mm 6 mps 721 mmHg 57%
    11:00 +16°C° 0.1 mm 5 mps 721 mmHg 55%
    12:00 +17°C° 0.1 mm 5 mps 720 mmHg 53%
    13:00 +19°C° 0.1 mm 4 mps 720 mmHg 51%
    14:00 +19°C° 0.1 mm 3 mps 719 mmHg 49%
    15:00 +20°C° 0.1 mm 2 mps 719 mmHg 47%
    16:00 +19°C° 0 mm 2 mps 719 mmHg 50%
    17:00 +18°C° 0 mm 3 mps 718 mmHg 53%
    18:00 +17°C° 0 mm 4 mps 718 mmHg 57%
    19:00 +16°C° 0 mm 3 mps 718 mmHg 61%
    20:00 +15°C° 0 mm 2 mps 719 mmHg 65%
    21:00 +14°C° 0 mm 1 mps 719 mmHg 70%
    22:00 +14°C° 0.2 mm 1 mps 719 mmHg 72%
    23:00 +14°C° 0.2 mm 1 mps 719 mmHg 75%

    26 March, Tuesday

    Time Temperature Precipitation Wind Pressure Humidity
    00:00 +14°C° 0.2 mm 1 mps 719 mmHg 77%
    01:00 +14°C° 0.1 mm 1 mps 718 mmHg 76%
    02:00 +14°C° 0.1 mm 2 mps 718 mmHg 74%
    03:00 +14°C° 0.1 mm 2 mps 718 mmHg 73%
    04:00 +13°C° 0 mm 3 mps 718 mmHg 71%
    05:00 +13°C° 0 mm 3 mps 718 mmHg 69%
    06:00 +13°C° 0 mm 3 mps 718 mmHg 68%
    07:00 +14°C° 0 mm 4 mps 718 mmHg 59%
    08:00 +17°C° 0 mm 4 mps 719 mmHg 51%
    09:00 +19°C° 0 mm 5 mps 719 mmHg 42%
    10:00 +21°C° 0 mm 5 mps 719 mmHg 38%
    11:00 +23°C° 0 mm 5 mps 719 mmHg 34%
    12:00 +26°C° 0 mm 5 mps 719 mmHg 29%
    13:00 +26°C° 0 mm 5 mps 718 mmHg 28%
    14:00 +27°C° 0 mm 5 mps 718 mmHg 28%
    15:00 +27°C° 0 mm 5 mps 717 mmHg 27%
    16:00 +25°C° 0 mm 5 mps 717 mmHg 33%
    17:00 +22°C° 0 mm 5 mps 717 mmHg 40%
    18:00 +20°C° 0 mm 5 mps 717 mmHg 47%
    19:00 +19°C° 0.6 mm 4 mps 717 mmHg 55%
    20:00 +17°C° 0.6 mm 3 mps 717 mmHg 63%
    21:00 +16°C° 0.6 mm 2 mps 718 mmHg 72%
    22:00 +15°C° 0.1 mm 2 mps 718 mmHg 72%
    23:00 +15°C° 0.1 mm 2 mps 718 mmHg 72%
    Show more